Flag for India Weather past 2 weeks in Jaipur, Rajasthan, India

Now
45 °F

Fog.


Feels Like: 45 °F
Forecast: 44 / 68 °F
Wind: 1 mph from North

Location: Jaipur / Sanganer

Current Time: Dec 26, 2014 at 8:03:47 AM

Latest Report: Dec 26, 2014 at 7:00 AM


Visibility: 1 mi

Pressure: 30.07 "Hg

Humidity: 100%

Dew point: 45 °F

Location of JaipurLocation

Historic Weather in Jaipur — Graph

°F

Jaipur temperature yesterday

Maximum temperature yesterday: 72 °F (at 3:00 PM)
Minimum temperature yesterday: 48 °F (at 5:00 AM)
Average temperature yesterday: 57 °F

Past Weeks' High & Low Weather Summary

 TemperatureHumidityPressure
High75 °F (Dec 11, 3:00 PM)100% (Dec 14, 8:00 AM)30.24 "Hg (Dec 14, 8:00 AM)
Low43 °F (Dec 21, 7:00 AM)12% (Dec 11, 3:00 PM)29.71 "Hg (Dec 12, 3:00 PM)
Average58 °F65%30.09 "Hg
* Reported Dec 11 6:00 AM — Dec 26 6:00 AM, Jaipur, Weather by CustomWeather, © 2014

Note: Actual official high and low records may vary slightly from our data, if they occured in-between our weather recording intervals... More about our weather records

Advertising

Jaipur weather history for previous 24 hours

 ConditionsComfort  
Time TempWeatherWind HumidityBarometerVisibility
6:00 AM
Dec 26
45 °FFog.No wind100%30.07 "Hg1 mi
5:30 AM45 °FFog.No wind100%30.07 "Hg1 mi
5:00 AM48 °FFog.No wind87%30.07 "Hg1 mi
4:00 AM46 °FFog.No wind87%30.07 "Hg1 mi
3:00 AM48 °FCool.N/A87%30.09 "HgN/A
2:00 AM48 °FFog.No wind82%30.09 "Hg1 mi
1:30 AM48 °FFog.No wind76%30.09 "Hg1 mi
1:00 AM50 °FFog.1 mph71%30.09 "Hg1 mi
12:30 AM50 °FFog.2 mph71%30.09 "Hg1 mi
11:30 PM
Dec 25
50 °FClear.No wind71%30.12 "Hg1 mi
11:00 PM54 °FClear.No wind58%30.12 "Hg1 mi
10:00 PM54 °FClear.1 mph54%30.12 "Hg1 mi
9:30 PM57 °FClear.2 mph44%30.12 "Hg1 mi
8:30 PM59 °FClear.3 mph36%30.09 "Hg1 mi
8:00 PM63 °FClear.5 mph30%30.09 "Hg1 mi
4:00 PM72 °FHaze.5 mph22%30.07 "Hg2 mi
3:30 PM72 °FHaze.7 mph22%30.07 "Hg2 mi
3:00 PM72 °FHaze.8 mph22%30.07 "Hg2 mi
1:00 PM70 °FHaze.7 mph38%30.12 "Hg1 mi
10:00 AM59 °FFog.6 mph72%30.18 "Hg1 mi
9:00 AM55 °FFog.3 mph88%30.18 "Hg1 mi
8:00 AM48 °FFog.3 mph100%30.15 "Hg1 mi
Weather by CustomWeather, © 2014

See weather overviewHow to use our weather pages